Regina,

12:41 AM CST on August 17, 2017 (GMT -0600)
Regina

Weather History for CYQR - July, 2013

Change the Weather History Date:

Thursday, July 4, 2013

  Actual Average Record
Temperature  
Mean Temperature 68 °F -  
Max Temperature 80 °F 79 °F 89 °F (2008)
Min Temperature 55 °F 53 °F 42 °F (2001)
Cooling Degree Days 2    
Growing Degree Days 18 (Base 50)    
Moisture  
Dew Point 56 °F    
Average Humidity 66    
Maximum Humidity 100    
Minimum Humidity 30    
Precipitation  
Precipitation 0.00 in 0.07 in - ()
Sea Level Pressure  
Sea Level Pressure 29.83 in    
Wind  
Wind Speed 7 mph ()    
Max Wind Speed 12 mph    
Max Gust Speed -    
Visibility 14.1 miles    
Events      
Averages and records for this station are not official NWS values.
T = Trace of Precipitation, MM = Missing Value Source: Averaged Metar Reports

Daily Weather History Graph

Daily Weather History Graph

Search for Another Location

Airport or City:

Trip Planner

Search our weather history database for the weather conditions in past years. The results will help you decide how hot, cold, wet, or windy it might be!

Date:

Astronomy

Jul. 04, 2013 Rise Set
Actual Time 4:53 AM CST 9:12 PM CST
Civil Twilight 4:09 AM CST 9:56 PM CST
Nautical Twilight 3:04 AM CST 11:01 PM CST
Astronomical Twilight 1:35 AM CST 12:30 AM CST
Moon 2:21 AM CST (7/4) 6:11 PM CST (7/4)
Length of Visible Light 17h 47m
Length of Day
16h 18m
Waning Crescent, 11% of the Moon is Illuminated
Jul 4
Waning Crescent
Jul 8
New
Jul 15
First Quarter
Jul 22
Full
Jul 29
Last Quarter

Hourly Weather History & Observations

Time (CST) Temp. Heat Index Dew Point Humidity Pressure Visibility Wind Dir Wind Speed Gust Speed Precip Events Conditions
12:00 AM 64 °F - 61 °F 88% 29.79 in 9 mi NNW 10.4 mph - -  
12:00 AM 64.4 °F - 60.8 °F 88% 29.79 in 15.0 mi NNW 10.4 mph - N/A   Clear
1:00 AM 60.8 °F - 59.0 °F 94% 29.80 in 15.0 mi NNW 8.1 mph - N/A   Clear
2:00 AM 59.0 °F - 57.2 °F 94% 29.80 in 15.0 mi NNW 9.2 mph - N/A   Clear
3:00 AM 59.0 °F - 57.2 °F 94% 29.81 in 15.0 mi NW 6.9 mph - N/A   Clear
4:00 AM 57.2 °F - 57.2 °F 100% 29.81 in 15.0 mi NW 9.2 mph - N/A   Partly Cloudy
5:00 AM 55.4 °F - 55.4 °F 100% 29.82 in 15.0 mi West 5.8 mph - N/A   Partly Cloudy
6:00 AM 58 °F - 57 °F 94%  in 9 mi WNW 5.8 mph - -  
6:00 AM 57.2 °F - 57.2 °F 100% 29.84 in 15.0 mi WNW 5.8 mph - N/A   Partly Cloudy
7:00 AM 60.8 °F - 59.0 °F 94% 29.85 in 15.0 mi NNW 9.2 mph - N/A   Partly Cloudy
8:00 AM 66.2 °F - 59.0 °F 78% 29.86 in 15.0 mi NNW 9.2 mph - N/A   Partly Cloudy
9:00 AM 69.8 °F - 60.8 °F 73% 29.86 in 15.0 mi NNW 10.4 mph - N/A   Partly Cloudy
10:00 AM 73.4 °F - 60.8 °F 65% 29.85 in 15.0 mi NNW 9.2 mph - N/A   Clear
11:00 AM 75.2 °F - 57.2 °F 53% 29.85 in 15.0 mi NNW 11.5 mph - N/A   Partly Cloudy
12:00 PM 77 °F - 57 °F 39% 29.85 in 9 mi NNW 9.2 mph - -  
12:00 PM 77.0 °F - 57.2 °F 50% 29.85 in 15.0 mi NNW 8.1 mph - N/A   Partly Cloudy
1:00 PM 78.8 °F - 55.4 °F 44% 29.85 in 15.0 mi NNE 9.2 mph - N/A   Partly Cloudy
2:00 PM 78.8 °F - 53.6 °F 42% 29.84 in 15.0 mi NNE 6.9 mph - N/A   Partly Cloudy
3:00 PM 78.8 °F - 53.6 °F 42% 29.85 in 15.0 mi North 8.1 mph - N/A   Partly Cloudy
4:00 PM 80.6 °F 80.3 °F 53.6 °F 39% 29.83 in 15.0 mi NNW 5.8 mph - N/A   Scattered Clouds
5:00 PM 80.6 °F 80.3 °F 53.6 °F 39% 29.83 in 15.0 mi NNW 5.8 mph - N/A   Mostly Cloudy
6:00 PM 80 °F - 54 °F 30% 29.81 in 9 mi NW 5.8 mph - -  
6:00 PM 78.8 °F - 53.6 °F 42% 29.82 in 15.0 mi NNW 3.5 mph - N/A   Mostly Cloudy
7:00 PM 78.8 °F - 55.4 °F 44% 29.81 in 15.0 mi North 2.3 mph - N/A   Mostly Cloudy
8:00 PM 77.0 °F - 53.6 °F 44% 29.80 in 15.0 mi Calm Calm - N/A   Partly Cloudy
9:00 PM 71.6 °F - 53.6 °F 53% 29.79 in 15.0 mi East 8.1 mph - N/A   Partly Cloudy
10:00 PM 68.0 °F - 53.6 °F 60% 29.81 in 15.0 mi ESE 4.6 mph - N/A   Partly Cloudy
11:00 PM 64.4 °F - 55.4 °F 73% 29.81 in 15.0 mi SE 8.1 mph - N/A   Scattered Clouds